Weather in Bolgar

Russia / Republic of Tatarstan     54°58′56″N   49°01′21″E
temp.,
°C
wind,
m/s
gust,
m/s
humid.,
%
clouds,
%
prec.,
mm/h
press.,
hPa
HPBL,
m
12 april, mon
mon1200:00+3nne5999100 1.4 1033104
03:00+2nne4798100 2.8 1035100
06:00+2nne61298100 1.2 1036188
09:00+2ne6119899 1.6 1037172
12:00+2ne5794100 0.0 1037105
15:00+2ne589799 0.0 1037104
18:00+3ne4799100 0.0 103673
21:00+2ne3510092 0.0 103759
13 april, tue
tue1300:00+2ne3410095 0.0 103743
03:00+2ene22100100 0.1 103627
06:00+2ene22100100 0.0 103618
09:00+4se119792 0.0 103642
12:00+5sse229586 0.0 103575
15:00+6sse239059 0.0 103486
18:00+7s118446 0.0 103211
21:00+6sse11925 0.0 103211
14 april, wed
wed1400:00+5s22945 0.0 103211
03:00+4s229354 0.0 103211
06:00+4sse22907 0.0 103113
09:00+5sse348316 0.0 103052
12:00+7sse35855 0.0 1029121
15:00+7sse35825 0.0 1027123
18:00+8se33815 0.0 102521
21:00+6sse33890 0.0 102513
15 april, thu
thu1500:00+5sse22935 0.0 102411
03:00+4sse22960 0.0 102411
06:00+4sse22960 0.0 102314
09:00+5sse23880 0.0 102252
12:00+7s23770 0.0 1021125
15:00+7s12710 0.0 1020179
18:00+5nne11822 0.0 101910
21:00+4ene00860 0.0 101910
16 april, fri
fri1600:00+4nw00840 0.0 101810
03:00+4nnw118217 0.0 101710
06:00+5nnw11831 0.0 101710
09:00+6n228013 0.0 101768
12:00+7n237613 0.0 1017185
15:00+6nne589181 0.3 1018114
18:00+6nne71284100 0.1 1019143
21:00+4nne71288100 0.1 1021170